EW3995 Weather Reports


Display with metric or nautical units.
time (UTC)temp
F
wind
direction
speed
MPH
gust
MPH
rain 1hr
in
rain 24hr
in
rain mn
in
humidity
%
barometer
mb
20260508173100 50 68 3.0 9.0 0.00 0.00 0.00 45 1003.3
20260508172100 51 60 4.0 9.0 0.00 0.00 0.00 43 1003.3
20260508171100 51 65 4.0 7.0 0.00 0.00 0.00 42 1003.3
20260508170100 52 88 4.0 8.0 0.00 0.00 0.00 40 1003.3
20260508165100 52 100 3.0 8.0 0.00 0.00 0.00 40 1003.3
20260508164100 53 68 5.0 11.0 0.00 0.00 0.00 40 1003.3
20260508163100 53 86 5.0 9.0 0.00 0.00 0.00 40 1003.3
20260508162100 53 76 3.0 6.0 0.00 0.00 0.00 40 1003.3
20260508161100 53 88 5.0 9.0 0.00 0.00 0.00 40 1003.3
20260508160100 53 57 4.0 8.0 0.00 0.00 0.00 40 1003.3
20260508155100 53 43 2.0 3.0 0.00 0.00 0.00 41 1003.3
20260508154100 53 68 0.0 3.0 0.00 0.00 0.00 40 1003.3
20260508153100 54 0 0.0 3.0 0.00 0.00 0.00 40 1003.3
20260508152100 55 312 2.0 4.0 0.00 0.00 0.00 38 1003.3
20260508150908 56 348 2.0 5.0 0.00 0.00 0.00 38 1003.3
20260508145908 57 0 2.0 4.0 0.00 0.00 0.00 38 1003.3
20260508144908 58 158 0.0 0.0 0.00 0.00 0.00 38 1003.3
20260508143908 59 158 0.0 2.0 0.00 0.00 0.00 37 1003.3
20260508142908 59 135 0.0 2.0 0.00 0.00 0.00 36 1003.3
20260508141738 60 135 0.0 3.0 0.00 0.00 0.00 36 1003.3
20260508140738 60 173 2.0 4.0 0.00 0.00 0.00 36 1003.3
20260508135738 61 147 2.0 4.0 0.00 0.00 0.00 35 1004.4
20260508134738 62 160 1.0 4.0 0.00 0.00 0.00 35 1004.4
20260508133738 63 141 2.0 4.0 0.00 0.00 0.00 35 1004.4
20260508132738 64 135 0.0 3.0 0.00 0.00 0.00 35 1005.4
20260508131738 61 135 1.0 4.0 0.00 0.00 0.00 35 1005.4
20260508130738 61 140 1.0 3.0 0.00 0.00 0.00 36 1005.4
20260508125738 60 115 1.0 3.0 0.00 0.00 0.00 36 1004.4
20260508124738 59 158 0.0 2.0 0.00 0.00 0.00 35 1005.4
20260508123738 59 158 0.0 2.0 0.00 0.00 0.00 34 1005.4
20260508122738 59 158 2.0 4.0 0.00 0.00 0.00 34 1005.4
20260508121738 60 162 3.0 5.0 0.00 0.00 0.00 34 1006.4
20260508120738 60 192 3.0 5.0 0.00 0.00 0.00 33 1006.4
20260508115738 61 166 2.0 5.0 0.00 0.00 0.00 32 1006.4
20260508114738 61 166 1.0 6.0 0.00 0.00 0.00 31 1007.5
20260508113738 61 192 3.0 6.0 0.00 0.00 0.00 30 1007.5
20260508112738 62 186 4.0 6.0 0.00 0.00 0.00 29 1007.5
20260508111738 64 192 4.0 7.0 0.00 0.00 0.00 29 1007.5
20260508110738 65 160 5.0 8.0 0.00 0.00 0.00 28 1007.5
20260508105738 65 137 3.0 6.0 0.00 0.00 0.00 29 1007.5
20260508104738 65 128 3.0 5.0 0.00 0.00 0.00 30 1006.4
20260508103738 63 162 3.0 5.0 0.00 0.00 0.00 29 1006.4
20260508102738 62 182 4.0 6.0 0.00 0.00 0.00 28 1007.5
20260508101738 62 151 2.0 8.0 0.00 0.00 0.00 28 1008.5
20260508100738 61 168 3.0 8.0 0.00 0.00 0.00 27 1008.5
20260508095738 62 135 6.0 8.0 0.00 0.00 0.00 26 1008.5
20260508094738 63 166 4.0 6.0 0.00 0.00 0.00 26 1009.6
20260508093738 64 143 5.0 8.0 0.00 0.00 0.00 25 1009.6
20260508092738 64 155 5.0 10.0 0.00 0.00 0.00 25 1008.5
20260508091738 64 155 6.0 15.0 0.00 0.00 0.00 25 1009.6
20260508090738 64 160 4.0 10.0 0.00 0.00 0.00 24 1009.6
20260508085738 65 151 5.0 12.0 0.00 0.00 0.00 25 1009.6
20260508084738 64 166 5.0 8.0 0.00 0.00 0.00 25 1009.6
20260508083738 64 146 4.0 9.0 0.00 0.00 0.00 24 1009.6
20260508082739 65 170 4.0 12.0 0.00 0.00 0.00 23 1009.6
20260508081739 66 155 7.0 11.0 0.00 0.00 0.00 23 1010.6
20260508080548 65 153 4.0 8.0 0.00 0.00 0.00 24 1010.6
20260508075548 64 160 5.0 10.0 0.00 0.00 0.00 24 1010.6
20260508074548 66 180 3.0 6.0 0.00 0.00 0.00 23 1010.6
20260508073548 67 146 4.0 8.0 0.00 0.00 0.00 23 1010.6
20260508072548 66 197 5.0 11.0 0.00 0.00 0.00 24 1010.6
20260508071548 65 155 7.0 15.0 0.00 0.00 0.00 23 1011.6
20260508070548 66 160 6.0 10.0 0.00 0.00 0.00 25 1011.6
20260508065548 66 178 5.0 11.0 0.00 0.00 0.00 27 1011.6
20260508064548 65 166 5.0 9.0 0.00 0.00 0.00 27 1012.7
20260508063548 64 140 6.0 12.0 0.00 0.00 0.00 27 1011.6
20260508062548 64 120 3.0 8.0 0.00 0.00 0.00 27 1011.6
20260508061548 64 112 4.0 9.0 0.00 0.00 0.00 29 1010.6
20260508060548 64 102 4.0 10.0 0.00 0.00 0.00 28 1011.6
20260508055548 63 57 4.0 9.0 0.00 0.00 0.00 27 1011.6
20260508054548 63 104 4.0 7.0 0.00 0.00 0.00 30 1012.7
20260508053357 63 155 6.0 11.0 0.00 0.00 0.00 32 1012.7
20260508052205 62 133 4.0 10.0 0.00 0.00 0.00 32 1012.7
20260508051206 61 105 3.0 8.0 0.00 0.00 0.00 33 1012.7
20260508050206 60 82 3.0 7.0 0.00 0.00 0.00 33 1013.7
20260508045205 60 79 4.0 8.0 0.00 0.00 0.00 34 1013.7
20260508044206 60 139 4.0 9.0 0.00 0.00 0.00 34 1013.7
20260508043205 59 148 5.0 9.0 0.00 0.00 0.00 35 1013.7
20260508042205 58 137 4.0 6.0 0.00 0.00 0.00 36 1013.7
20260508041206 56 94 3.0 7.0 0.00 0.00 0.00 36 1013.7
20260508040014 55 146 4.0 6.0 0.00 0.00 0.00 38 1013.7
20260508035014 53 130 3.0 6.0 0.00 0.00 0.00 40 1014.7
20260508033844 50 122 4.0 9.0 0.00 0.00 0.00 41 1014.7
20260508032652 47 94 3.0 6.0 0.00 0.00 0.00 42 1013.7
20260508031653 46 102 3.0 6.0 0.00 0.00 0.00 41 1013.7
20260508030652 45 59 2.0 7.0 0.00 0.00 0.00 41 1013.7
20260508025653 45 118 1.0 8.0 0.00 0.00 0.00 42 1012.7
20260508024652 46 118 3.0 6.0 0.00 0.00 0.00 42 1013.7
20260508023653 45 81 2.0 6.0 0.00 0.00 0.00 43 1013.7
20260508022652 44 97 2.0 6.0 0.00 0.00 0.00 44 1013.7
20260508021501 44 74 3.0 6.0 0.00 0.00 0.00 44 1013.7
20260508020502 43 72 2.0 6.0 0.00 0.00 0.00 45 1013.7
20260508015502 42 82 1.0 7.0 0.00 0.00 0.00 45 1013.7
20260508014501 41 70 2.0 6.0 0.00 0.00 0.00 45 1013.7
20260508013310 40 79 2.0 4.0 0.00 0.00 0.00 46 1013.7
20260508012310 40 61 1.0 4.0 0.00 0.00 0.00 46 1013.7
20260508011310 39 65 2.0 4.0 0.00 0.00 0.00 47 1013.7
20260508010310 38 52 1.0 5.0 0.00 0.00 0.00 48 1014.7
20260508005310 38 61 2.0 4.0 0.00 0.00 0.00 48 1014.7
20260508004310 37 47 2.0 4.0 0.00 0.00 0.00 49 1013.7
20260508003310 37 50 1.0 4.0 0.00 0.00 0.00 49 1013.7
20260508002119 37 85 3.0 4.0 0.00 0.00 0.00 51 1013.7
20260508001119 36 68 1.0 3.0 0.00 0.00 0.00 53 1013.7
20260508000119 35 61 1.0 3.0 0.00 0.00 0.00 57 1014.7
20260507235119 33 22 0.0 2.0 0.00 0.00 0.00 64 1014.7
20260507233928 33 22 0.0 0.0 0.00 0.00 0.00 64 1014.7
20260507232757 32 22 0.0 0.0 0.00 0.00 0.00 63 1014.7
20260507231757 32 22 0.0 0.0 0.00 0.00 0.00 62 1014.7
20260507230757 32 22 0.0 0.0 0.00 0.00 0.00 63 1014.7
20260507225757 31 22 0.0 0.0 0.00 0.00 0.00 63 1014.7
20260507224757 30 22 0.0 0.0 0.00 0.00 0.00 63 1013.7
20260507223757 30 22 0.0 0.0 0.00 0.00 0.00 62 1013.7
20260507222627 30 22 0.0 0.0 0.00 0.00 0.00 61 1013.7
20260507221627 30 22 0.0 0.0 0.00 0.00 0.00 62 1013.7
20260507220457 30 22 0.0 0.0 0.00 0.00 0.00 62 1013.7
20260507215457 30 22 0.0 0.0 0.00 0.00 0.00 61 1013.7
20260507214457 30 22 0.0 0.0 0.00 0.00 0.00 59 1014.7
20260507213457 31 22 0.0 0.0 0.00 0.00 0.00 59 1013.7
20260507212307 31 22 0.0 1.0 0.00 0.00 0.00 58 1013.7
20260507211306 31 90 0.0 0.0 0.00 0.00 0.00 59 1013.7
20260507210305 31 90 0.0 0.0 0.00 0.00 0.00 56 1013.7
20260507205307 31 90 0.0 0.0 0.00 0.00 0.00 56 1013.7
20260507204135 32 90 0.0 0.0 0.00 0.00 0.00 56 1013.7
20260507202944 32 90 0.0 0.0 0.00 0.00 0.00 56 1013.7
20260507201814 32 90 0.0 0.0 0.00 0.00 0.00 56 1013.7
20260507200814 32 90 0.0 0.0 0.00 0.00 0.00 56 1013.7
20260507195814 31 90 0.0 0.0 0.00 0.00 0.00 56 1013.7
20260507194814 32 90 0.0 0.0 0.00 0.00 0.00 54 1013.7
20260507193814 31 90 0.0 0.0 0.00 0.00 0.00 54 1013.7
20260507192814 32 90 0.0 0.0 0.00 0.00 0.00 54 1013.7
20260507191814 32 90 0.0 0.0 0.00 0.00 0.00 54 1013.7
20260507190814 33 90 0.0 0.0 0.00 0.00 0.00 53 1013.7
20260507185814 33 90 0.0 0.0 0.00 0.00 0.00 53 1012.7
20260507184814 34 90 0.0 0.0 0.00 0.00 0.00 54 1012.7
20260507183814 34 90 0.0 0.0 0.00 0.00 0.00 52 1012.7
20260507182814 35 90 0.0 0.0 0.00 0.00 0.00 52 1012.7
20260507181814 35 90 0.0 0.0 0.00 0.00 0.00 49 1013.7
20260507180644 36 90 0.0 0.0 0.00 0.00 0.00 47 1013.7
20260507175644 37 90 0.0 0.0 0.00 0.00 0.00 46 1013.7
20260507174644 37 90 0.0 0.0 0.00 0.00 0.00 44 1013.7
20260507173644 38 22 0.0 0.0 0.00 0.00 0.00 44 1013.7